Tracking 30923 objects as of 1-Jul-2025
HD Live streaming from Space Station
objects crossing your sky now

OBJECT L

Track OBJECT L now!
10-day predictions


NORAD ID: 56856
Int'l Code: 2023-081L
Perigee: 367.5 km
Apogee: 371.8 km
Inclination: 97.3 °
Period: 91.8 minutes
Semi major axis: 6740 km
RCS: Unknown
Launch date: June 7, 2023
Source: (TBD)
Launch site: Jiuquan Satellite Launch Center, China (JSC)
Your satellite tracking list
Your tracking list is empty




NASA's NSSDC Master Catalog

Two Line Element Set (TLE):
1 56856U 23081L   25181.89692523  .00111340  00000-0  96692-3 0  9990
2 56856  97.3279 261.5234 0003256 192.2325 167.8858 15.68737085115372
Source of the keplerian elements: AFSPC